Torna al catalogo

FENGYUN 1C DEB

AttivoSSO
NORAD 31945·DEBRIS·🇨🇳 China

Lanciato May 10, 1999 da Taiyuan Satellite Launch Center

Loading…

Prossimi Passaggi (prossime 24 ore)

TLE

AggiornatoSource: Space-Track

Epoca: Sep 12, 2026, 04:46 UTC

1 31945U 99025CMW 26255.19875236  .00001840  00000-0  83194-3 0  9999
2 31945  98.9519 340.5577 0059610 222.2723 137.3852 14.22387013990814

Traccia FENGYUN 1C DEB in tempo reale con AllMySat

Download on the App Store